Flag for U.S.A. Weather past 2 weeks in Redmond, Washington, U.S.A.

Now
64 °F

More clouds than sun.


Feels Like: 64 °F
Forecast: 53 / 63 °F
Wind: 7 mph from North

Location: Seattle Boeing Field

Current Time: Jun 2, 2015 at 5:06:57 PM

Latest Report: Jun 2, 2015 at 3:53 PM


Visibility: 10 mi

Pressure: 30.03 "Hg

Humidity: 61%

Dew point: 50 °F

Location of RedmondLocation

Historic Weather in Redmond — Graph

°F

Redmond temperature yesterday

Maximum temperature yesterday: 64 °F (at 12:53 AM)
Minimum temperature yesterday: 57 °F (at 6:53 AM)
Average temperature yesterday: 60 °F

Past Weeks' High & Low Weather Summary

 TemperatureHumidityPressure
High82 °F (May 28, 4:53 PM)86% (May 20, 5:53 AM)30.19 "Hg (May 20, 5:53 AM)
Low53 °F (May 30, 5:53 AM)34% (May 28, 4:53 PM)29.76 "Hg (May 31, 8:53 PM)
Average64 °F63%29.99 "Hg
* Reported May 18 3:53 PM — Jun 2 3:53 PM, Redmond, Weather by CustomWeather, © 2015

Note: Actual official high and low records may vary slightly from our data, if they occured in-between our weather recording intervals... More about our weather records

Advertising

Redmond weather history for previous 24 hours

 ConditionsComfort  
Time TempWeatherWind HumidityBarometerVisibility
3:53 PM
Tue, Jun 2
64 °FMore clouds than sun.7 mph61%30.03 "Hg10 mi
2:53 PM64 °FOvercast.8 mph58%30.02 "Hg10 mi
1:53 PM65 °FMore clouds than sun.10 mph56%30.02 "Hg10 mi
12:53 PM63 °FMostly cloudy.9 mph63%30.02 "Hg10 mi
11:53 AM62 °FMostly cloudy.12 mph65%30.01 "Hg10 mi
10:53 AM61 °FCloudy.9 mph67%30.01 "Hg10 mi
9:53 AM61 °FMostly cloudy.9 mph67%30.01 "Hg10 mi
8:53 AM60 °FMostly cloudy.12 mph72%30.01 "Hg10 mi
7:53 AM58 °FMostly cloudy.12 mph78%30.00 "Hg10 mi
6:53 AM58 °FMostly cloudy.7 mph78%29.98 "Hg10 mi
5:53 AM58 °FMostly cloudy.6 mph78%29.97 "Hg10 mi
4:53 AM58 °FMostly cloudy.6 mph78%29.96 "Hg10 mi
3:53 AM58 °FOvercast.8 mph78%29.96 "Hg10 mi
2:53 AM58 °FMostly cloudy.9 mph81%29.96 "Hg10 mi
1:53 AM59 °FOvercast.7 mph75%29.95 "Hg10 mi
12:53 AM59 °FMostly cloudy.7 mph72%29.94 "Hg10 mi
11:53 PM
Mon, Jun 1
59 °FMostly cloudy.6 mph75%29.95 "Hg10 mi
10:53 PM60 °FMostly cloudy.3 mph72%29.95 "Hg10 mi
9:53 PM60 °FMostly cloudy.6 mph72%29.94 "Hg10 mi
7:53 PM60 °FOvercast.6 mph72%29.93 "Hg10 mi
6:53 PM61 °FMostly cloudy.5 mph67%29.93 "Hg10 mi
5:53 PM62 °FCloudy.8 mph67%29.93 "Hg10 mi
Weather by CustomWeather, © 2015

See weather overviewHow to use our weather pages